Location: Shell Point
(30.0571°N, 84.2896°W)
Time: 06:04:41
(UTC-05:00)

Meteor 2-19 Rocket - Visible Passes

Search period start: 19 January 2018 00:00
Search period end: 29 January 2018 00:00
Orbit: 935 x 959 km, 82.5° (Epoch: 18 January)

Date Brightness Start Highest point End Pass type
(mag) Time Alt. Az. Time Alt. Az. Time Alt. Az.
19 Jan 6.2 05:25:04 10° SSE 05:30:17 31° E 05:35:29 10° NNE visible
20 Jan 5.2 05:41:16 10° SSE 05:47:07 52° E 05:52:58 10° NNE visible
20 Jan 6.8 18:25:09 10° NNW 18:30:09 27° W 18:35:11 10° SW visible
21 Jan 4.4 05:57:57 10° S 06:04:02 87° E 06:10:06 10° N visible
21 Jan 7.2 18:43:21 10° NW 18:46:53 16° W 18:50:25 10° WSW visible
22 Jan 7.1 04:33:37 10° ESE 04:36:48 15° E 04:40:00 10° NE visible
22 Jan 4.4 06:15:06 10° SSW 06:21:01 56° W 06:26:57 10° N visible
23 Jan 6.4 04:48:41 10° SE 04:53:32 26° E 04:58:22 10° NE visible
23 Jan 5.0 06:32:42 10° SW 06:38:05 33° W 06:43:30 10° NNW visible
24 Jan 5.5 05:04:41 10° SSE 05:10:20 43° E 05:16:00 10° NNE visible
24 Jan 5.5 06:50:57 10° WSW 06:55:16 20° WNW 06:59:35 10° NNW visible
25 Jan 4.5 05:21:12 10° S 05:27:13 73° E 05:33:14 10° N visible
26 Jan 7.2 03:58:01 10° ESE 04:00:06 12° E 04:02:11 10° ENE visible
26 Jan 4.3 05:38:11 10° SSW 05:44:11 68° W 05:50:12 10° N visible
27 Jan 6.5 04:12:24 10° SE 04:16:47 21° E 04:21:10 10° NE visible
27 Jan 4.7 05:55:36 10° SSW 06:01:13 40° W 06:06:52 10° N visible
28 Jan 5.7 04:28:08 10° SSE 04:33:34 36° E 04:38:59 10° NNE visible
28 Jan 5.3 06:13:36 10° SW 06:18:21 24° WNW 06:23:09 10° NNW visible
